| time (UTC) | temp F | wind direction | speed MPH | gust MPH | rain 1hr in | rain 24hr in | rain mn in | humidity % | barometer mb |
| 20260504201508 | 70 | 314 | 4.0 | 11.0 | 0.00 | 0.02 | 0.00 | 58 | 1005.7 |
| 20260504200013 | 72 | 304 | 4.0 | 9.0 | 0.00 | 0.02 | 0.00 | 57 | 1006.1 |
| 20260504194513 | 71 | 307 | 3.0 | 8.0 | 0.00 | 0.02 | 0.00 | 61 | 1006.4 |
| 20260504193018 | 71 | 280 | 3.0 | 7.0 | 0.00 | 0.02 | 0.00 | 57 | 1006.4 |
| 20260504191521 | 71 | 248 | 2.0 | 7.0 | 0.00 | 0.02 | 0.00 | 60 | 1006.4 |
| 20260504190021 | 72 | 276 | 3.0 | 9.0 | 0.00 | 0.02 | 0.00 | 56 | 1006.1 |
| 20260504184532 | 72 | 290 | 2.0 | 10.0 | 0.00 | 0.02 | 0.00 | 58 | 1006.6 |
| 20260504183034 | 71 | 260 | 4.0 | 9.0 | 0.00 | 0.02 | 0.00 | 58 | 1006.7 |
| 20260504181535 | 71 | 277 | 3.0 | 8.0 | 0.00 | 0.02 | 0.00 | 58 | 1006.6 |
| 20260504180025 | 72 | 303 | 3.0 | 8.0 | 0.00 | 0.02 | 0.00 | 55 | 1006.6 |
| 20260504174527 | 73 | 292 | 2.0 | 10.0 | 0.00 | 0.02 | 0.00 | 55 | 1006.2 |
| 20260504173029 | 73 | 258 | 2.0 | 10.0 | 0.00 | 0.02 | 0.00 | 58 | 1006.2 |
| 20260504171533 | 73 | 321 | 2.0 | 8.0 | 0.00 | 0.02 | 0.00 | 57 | 1006.2 |
| 20260504120114 | 50 | 209 | 0.0 | 3.0 | 0.00 | 0.02 | 0.00 | 78 | 1008.3 |
| 20260504081522 | 48 | 262 | 0.0 | 0.0 | 0.00 | 0.02 | 0.00 | 79 | 1009.5 |
| 20260504044525 | 52 | 226 | 1.0 | 5.0 | 0.00 | 0.02 | 0.00 | 71 | 1011.3 |
| 20260504043030 | 51 | 243 | 2.0 | 5.0 | 0.00 | 0.02 | 0.00 | 71 | 1011.4 |
| 20260504041527 | 51 | 211 | 0.0 | 4.0 | 0.00 | 0.02 | 0.00 | 73 | 1011.7 |
| 20260504040030 | 51 | 192 | 0.0 | 3.0 | 0.00 | 0.02 | 0.00 | 74 | 1011.8 |
| 20260504034526 | 50 | 190 | 2.0 | 5.0 | 0.00 | 0.02 | 0.02 | 76 | 1012.0 |
| 20260504033030 | 50 | 193 | 2.0 | 5.0 | 0.00 | 0.02 | 0.02 | 78 | 1012.1 |
| 20260504031541 | 50 | 205 | 2.0 | 5.0 | 0.00 | 0.02 | 0.02 | 79 | 1012.2 |
| 20260504030055 | 50 | 196 | 2.0 | 5.0 | 0.00 | 0.02 | 0.02 | 79 | 1012.3 |
| 20260504024544 | 50 | 190 | 3.0 | 5.0 | 0.00 | 0.02 | 0.02 | 79 | 1012.6 |
| 20260504023050 | 50 | 198 | 3.0 | 5.0 | 0.00 | 0.02 | 0.02 | 79 | 1012.6 |
| 20260504021551 | 50 | 185 | 2.0 | 4.0 | 0.00 | 0.02 | 0.02 | 78 | 1012.6 |
| 20260504020054 | 49 | 179 | 4.0 | 7.0 | 0.00 | 0.02 | 0.02 | 81 | 1012.7 |
| 20260504014605 | 49 | 178 | 2.0 | 5.0 | 0.00 | 0.02 | 0.02 | 84 | 1012.8 |
| 20260504013058 | 49 | 177 | 4.0 | 7.0 | 0.00 | 0.02 | 0.02 | 84 | 1012.7 |
| 20260504011510 | 49 | 173 | 5.0 | 7.0 | 0.00 | 0.02 | 0.02 | 84 | 1012.7 |
| 20260504010011 | 49 | 175 | 4.0 | 8.0 | 0.00 | 0.02 | 0.02 | 83 | 1012.8 |
| 20260504004534 | 49 | 175 | 6.0 | 9.0 | 0.00 | 0.02 | 0.02 | 82 | 1012.8 |
| 20260504003104 | 49 | 170 | 6.0 | 11.0 | 0.00 | 0.02 | 0.02 | 81 | 1012.7 |
| 20260504003004 | 49 | 176 | 6.0 | 11.0 | 0.00 | 0.02 | 0.02 | 81 | 1012.7 |
| 20260504001555 | 49 | 171 | 5.0 | 9.0 | 0.00 | 0.02 | 0.02 | 81 | 1012.7 |
| 20260504000100 | 49 | 157 | 6.0 | 10.0 | 0.00 | 0.02 | 0.02 | 80 | 1012.8 |
| 20260503234510 | 49 | 160 | 7.0 | 11.0 | 0.00 | 0.02 | 0.02 | 80 | 1012.7 |
| 20260503233007 | 49 | 165 | 7.0 | 11.0 | 0.00 | 0.02 | 0.02 | 80 | 1012.8 |
| 20260503231510 | 49 | 166 | 6.0 | 10.0 | 0.00 | 0.02 | 0.02 | 82 | 1012.7 |
| 20260503230012 | 49 | 173 | 7.0 | 11.0 | 0.00 | 0.02 | 0.02 | 82 | 1012.9 |
| 20260503224513 | 48 | 152 | 7.0 | 11.0 | 0.00 | 0.02 | 0.02 | 82 | 1013.2 |
| 20260503223013 | 49 | 165 | 6.0 | 11.0 | 0.00 | 0.02 | 0.02 | 84 | 1013.5 |
| 20260503221516 | 49 | 140 | 7.0 | 9.0 | 0.00 | 0.02 | 0.02 | 83 | 1014.1 |
| 20260503220056 | 48 | 119 | 4.0 | 7.0 | 0.01 | 0.02 | 0.02 | 84 | 1014.4 |
| 20260503214600 | 48 | 127 | 3.0 | 7.0 | 0.01 | 0.02 | 0.02 | 83 | 1014.7 |
| 20260503214501 | 48 | 127 | 2.0 | 5.0 | 0.01 | 0.02 | 0.02 | 83 | 1014.7 |
| 20260503213004 | 48 | 127 | 0.0 | 3.0 | 0.02 | 0.02 | 0.02 | 83 | 1015.0 |
| 20260503211508 | 48 | 144 | 2.0 | 3.0 | 0.02 | 0.02 | 0.02 | 81 | 1015.2 |
| 20260503210017 | 48 | 293 | 0.0 | 7.0 | 0.01 | 0.01 | 0.01 | 81 | 1016.0 |
| 20260503204524 | 51 | 267 | 5.0 | 9.0 | 0.00 | 0.00 | 0.01 | 71 | 1016.2 |
| 20260503203013 | 55 | 298 | 4.0 | 9.0 | 0.00 | 0.00 | 0.00 | 55 | 1015.9 |